Weather in Verkhneye Volozero

Russia / Republic of Karelia     62°46′18″N   35°25′05″E
В апреле 2022 года жителям России запретили посещать сайт meteo.paraplan.net по решению Генеральной прокуратуры. Аудитория сайта уменьшилась в 10 раз. Владельцы сайта не видят смысла в поддержке погодного сервера в таких условиях. Сайт будет закрыт в октябре.
temp.,
°C
wind,
m/s
gust,
m/s
humid.,
%
clouds,
%
prec.,
mm/h
press.,
hPa
HPBL,
m
25 september, sun
sun2500:00+6ne41192100 1.8 1012638
03:00+5ne41188100 2.5 1011653
06:00+4ne41086100 0.1 1011583
09:00+4ne4990100 0.4 1011503
12:00+5ene3890100 0.0 1011454
15:00+6ene3792100 0.0 1011391
18:00+6ene3793100 0.0 1011340
21:00+6ene3795100 0.0 1011312
26 september, mon
mon2600:00+6ene2596100 0.1 1011257
03:00+6ene2596100 0.1 1011238
06:00+6ene2596100 0.0 1011183
09:00+7ne2696100 0.3 1010273
12:00+8ene259088 0.3 1011436
15:00+8e3689100 0.6 1011603
18:00+6e3792100 1.5 1013527
21:00+5e3892100 1.5 1014548
27 september, tue
tue2700:00+5e2693100 0.0 1014421
03:00+5ene2693100 0.0 1015337
06:00+5e3793100 0.0 1015367
09:00+5e3793100 0.1 1016395
12:00+8ese358596 0.0 1017538
15:00+10ese357137 0.0 1017923
18:00+7e3786100 0.0 1018363
21:00+7e3988100 0.0 1019377
28 september, wed
wed2800:00+7e3889100 0.0 1019362
03:00+6e3789100 0.0 1019338
06:00+6e3990100 0.0 1020367
09:00+6e31089100 0.1 1020370
12:00+10ese477049 0.0 1020842
15:00+11ese476410 0.3 10191265
18:00+8e410715 0.0 1019692
21:00+5e41172100 0.0 1019693
29 september, thu
thu2900:00+4e41273100 0.0 1019632
03:00+2e51277100 0.0 1018623
06:00+2e51378100 0.0 1017623
09:00+3e51472100 0.0 1017629
12:00+3ese51380100 0.6 1017805
15:00+3ese51386100 1.6 1017826
18:00+2ese51396100 0.9 1017746
21:00+2se51193100 1.4 1018781